• In Deutschland
  • Länderverzeichnis
  • Für 7 Tage
  • Wassertemperatur
  • Satellitenkarten
  • Wetterkarte
  • Widgets
  • user-avatar
    Anmelden

    Stündliche Wetter Kabul

    Heute, 24 April, Dienstag

    Zeit Temperatur Niederschläge Wind Luftdruck Luftfeuchtigkeit
    00:00 +18°C° 0 mm 1 m/S 610 mmHg 38%
    01:00 +18°C° 0 mm 1 m/S 610 mmHg 38%
    02:00 +16°C° 0 mm 1 m/S 609 mmHg 39%
    03:00 +15°C° 0 mm 1 m/S 609 mmHg 39%
    04:00 +15°C° 0 mm 1 m/S 609 mmHg 39%
    05:00 +15°C° 0 mm 1 m/S 609 mmHg 38%
    06:00 +16°C° 0 mm 1 m/S 610 mmHg 34%
    07:00 +19°C° 0 mm 1 m/S 610 mmHg 30%
    08:00 +20°C° 0 mm 1 m/S 611 mmHg 26%
    09:00 +21°C° 0 mm 1 m/S 611 mmHg 24%
    10:00 +22°C° 0 mm 1 m/S 611 mmHg 22%
    11:00 +24°C° 0 mm 2 m/S 612 mmHg 20%
    12:00 +24°C° 0 mm 2 m/S 612 mmHg 20%
    13:00 +25°C° 0 mm 2 m/S 612 mmHg 20%
    14:00 +25°C° 0 mm 3 m/S 612 mmHg 19%
    15:00 +25°C° 0 mm 3 m/S 611 mmHg 21%
    16:00 +24°C° 0 mm 3 m/S 611 mmHg 22%
    17:00 +23°C° 0 mm 4 m/S 611 mmHg 23%
    18:00 +22°C° 0,2 mm 3 m/S 611 mmHg 28%
    19:00 +21°C° 0,2 mm 2 m/S 611 mmHg 33%
    20:00 +19°C° 0,2 mm 2 m/S 611 mmHg 38%
    21:00 +19°C° 0,1 mm 2 m/S 611 mmHg 41%
    22:00 +19°C° 0,1 mm 1 m/S 611 mmHg 43%
    23:00 +19°C° 0,1 mm 1 m/S 611 mmHg 46%

    Morgen, 25 April, Mittwoch

    Zeit Temperatur Niederschläge Wind Luftdruck Luftfeuchtigkeit
    00:00 +18°C° 0 mm 1 m/S 610 mmHg 48%
    01:00 +16°C° 0 mm 1 m/S 610 mmHg 49%
    02:00 +16°C° 0 mm 1 m/S 610 mmHg 51%
    03:00 +15°C° 0 mm 2 m/S 609 mmHg 52%
    04:00 +15°C° 0 mm 2 m/S 609 mmHg 53%
    05:00 +14°C° 0 mm 2 m/S 609 mmHg 54%
    06:00 +15°C° 0 mm 2 m/S 610 mmHg 51%
    07:00 +16°C° 0 mm 2 m/S 610 mmHg 48%
    08:00 +17°C° 0 mm 2 m/S 611 mmHg 45%
    09:00 +18°C° 0 mm 2 m/S 611 mmHg 41%
    10:00 +19°C° 0 mm 3 m/S 611 mmHg 37%
    11:00 +20°C° 0 mm 3 m/S 612 mmHg 33%
    12:00 +21°C° 0 mm 3 m/S 612 mmHg 30%
    13:00 +22°C° 0 mm 4 m/S 612 mmHg 28%
    14:00 +23°C° 0 mm 4 m/S 612 mmHg 25%
    15:00 +22°C° 0 mm 5 m/S 612 mmHg 25%
    16:00 +22°C° 0 mm 5 m/S 611 mmHg 25%
    17:00 +22°C° 0 mm 5 m/S 611 mmHg 25%
    18:00 +21°C° 0 mm 5 m/S 611 mmHg 29%
    19:00 +19°C° 0 mm 4 m/S 611 mmHg 32%
    20:00 +18°C° 0 mm 4 m/S 611 mmHg 36%
    21:00 +17°C° 0 mm 3 m/S 611 mmHg 38%
    22:00 +17°C° 0 mm 3 m/S 611 mmHg 40%
    23:00 +16°C° 0 mm 3 m/S 611 mmHg 42%

    übermorgen, 26 April, Donnerstag

    Zeit Temperatur Niederschläge Wind Luftdruck Luftfeuchtigkeit
    00:00 +14°C° 0 mm 3 m/S 610 mmHg 43%
    01:00 +15°C° 0 mm 2 m/S 610 mmHg 44%
    02:00 +14°C° 0 mm 2 m/S 609 mmHg 44%
    03:00 +14°C° 0 mm 2 m/S 609 mmHg 44%
    04:00 +12°C° 0 mm 3 m/S 609 mmHg 43%
    05:00 +12°C° 0 mm 3 m/S 609 mmHg 43%
    06:00 +13°C° 0 mm 3 m/S 609 mmHg 38%
    07:00 +15°C° 0 mm 2 m/S 610 mmHg 34%
    08:00 +16°C° 0 mm 2 m/S 610 mmHg 29%
    09:00 +18°C° 0 mm 2 m/S 611 mmHg 24%
    10:00 +19°C° 0 mm 2 m/S 611 mmHg 20%
    11:00 +21°C° 0 mm 2 m/S 611 mmHg 16%
    12:00 +23°C° 0 mm 2 m/S 611 mmHg 14%
    13:00 +24°C° 0 mm 2 m/S 611 mmHg 13%
    14:00 +25°C° 0 mm 3 m/S 611 mmHg 11%
    15:00 +25°C° 0 mm 3 m/S 611 mmHg 12%
    16:00 +25°C° 0 mm 3 m/S 611 mmHg 12%
    17:00 +25°C° 0 mm 4 m/S 610 mmHg 12%
    18:00 +22°C° 0 mm 3 m/S 610 mmHg 15%
    19:00 +21°C° 0 mm 3 m/S 610 mmHg 18%
    20:00 +20°C° 0 mm 2 m/S 610 mmHg 21%
    21:00 +19°C° 0 mm 2 m/S 610 mmHg 23%
    22:00 +18°C° 0 mm 2 m/S 610 mmHg 24%
    23:00 +17°C° 0 mm 2 m/S 610 mmHg 26%

    27 April, Freitag

    Zeit Temperatur Niederschläge Wind Luftdruck Luftfeuchtigkeit
    00:00 +17°C° 0 mm 2 m/S 610 mmHg 26%
    01:00 +16°C° 0 mm 2 m/S 610 mmHg 27%
    02:00 +15°C° 0 mm 2 m/S 609 mmHg 27%
    03:00 +15°C° 0 mm 2 m/S 609 mmHg 28%
    04:00 +14°C° 0 mm 2 m/S 609 mmHg 28%
    05:00 +14°C° 0 mm 2 m/S 609 mmHg 28%
    06:00 +15°C° 0 mm 2 m/S 610 mmHg 26%
    07:00 +17°C° 0 mm 2 m/S 610 mmHg 23%
    08:00 +18°C° 0 mm 2 m/S 611 mmHg 21%
    09:00 +19°C° 0 mm 2 m/S 611 mmHg 19%
    10:00 +20°C° 0 mm 2 m/S 612 mmHg 17%
    11:00 +23°C° 0 mm 2 m/S 612 mmHg 15%
    12:00 +24°C° 0 mm 2 m/S 612 mmHg 15%
    13:00 +24°C° 0 mm 2 m/S 612 mmHg 14%
    14:00 +25°C° 0 mm 3 m/S 612 mmHg 14%
    15:00 +25°C° 0 mm 3 m/S 612 mmHg 14%
    16:00 +25°C° 0 mm 3 m/S 612 mmHg 15%
    17:00 +25°C° 0 mm 4 m/S 612 mmHg 15%
    18:00 +24°C° 0 mm 3 m/S 612 mmHg 18%
    19:00 +21°C° 0 mm 3 m/S 612 mmHg 21%
    20:00 +20°C° 0 mm 2 m/S 612 mmHg 24%
    21:00 +19°C° 0 mm 2 m/S 611 mmHg 26%
    22:00 +18°C° 0 mm 2 m/S 611 mmHg 28%
    23:00 +18°C° 0 mm 2 m/S 611 mmHg 31%

    28 April, Samstag

    Zeit Temperatur Niederschläge Wind Luftdruck Luftfeuchtigkeit
    00:00 +17°C° 0 mm 2 m/S 611 mmHg 32%
    01:00 +17°C° 0 mm 2 m/S 610 mmHg 33%
    02:00 +16°C° 0 mm 2 m/S 610 mmHg 34%
    03:00 +16°C° 0 mm 2 m/S 610 mmHg 34%
    04:00 +15°C° 0 mm 2 m/S 610 mmHg 34%
    05:00 +15°C° 0 mm 2 m/S 609 mmHg 34%
    06:00 +16°C° 0 mm 2 m/S 610 mmHg 31%
    07:00 +17°C° 0 mm 2 m/S 611 mmHg 28%
    08:00 +19°C° 0 mm 1 m/S 611 mmHg 25%
    09:00 +20°C° 0 mm 2 m/S 612 mmHg 23%
    10:00 +21°C° 0 mm 2 m/S 612 mmHg 21%
    11:00 +23°C° 0 mm 2 m/S 612 mmHg 19%
    12:00 +24°C° 0 mm 2 m/S 612 mmHg 18%
    13:00 +25°C° 0 mm 2 m/S 612 mmHg 17%
    14:00 +25°C° 0 mm 2 m/S 612 mmHg 16%
    15:00 +25°C° 0 mm 3 m/S 612 mmHg 16%
    16:00 +25°C° 0 mm 3 m/S 612 mmHg 16%
    17:00 +25°C° 0 mm 3 m/S 611 mmHg 17%
    18:00 +24°C° 0 mm 3 m/S 611 mmHg 18%
    19:00 +23°C° 0 mm 2 m/S 612 mmHg 20%
    20:00 +21°C° 0 mm 2 m/S 612 mmHg 22%
    21:00 +21°C° 0 mm 1 m/S 611 mmHg 24%
    22:00 +20°C° 0 mm 1 m/S 611 mmHg 27%
    23:00 +19°C° 0 mm 1 m/S 611 mmHg 29%

    29 April, Sonntag

    Zeit Temperatur Niederschläge Wind Luftdruck Luftfeuchtigkeit
    00:00 +19°C° 0 mm 1 m/S 610 mmHg 29%
    01:00 +18°C° 0 mm 1 m/S 610 mmHg 29%
    02:00 +18°C° 0 mm 1 m/S 609 mmHg 29%
    03:00 +16°C° 0 mm 1 m/S 609 mmHg 29%
    04:00 +16°C° 0 mm 1 m/S 609 mmHg 29%
    05:00 +16°C° 0 mm 1 m/S 609 mmHg 29%
    06:00 +18°C° 0 mm 1 m/S 609 mmHg 26%
    07:00 +19°C° 0 mm 1 m/S 610 mmHg 24%
    08:00 +21°C° 0 mm 1 m/S 611 mmHg 21%
    09:00 +21°C° 0 mm 2 m/S 611 mmHg 20%
    10:00 +24°C° 0 mm 2 m/S 612 mmHg 18%
    11:00 +25°C° 0 mm 2 m/S 612 mmHg 16%
    12:00 +26°C° 0 mm 2 m/S 612 mmHg 15%
    13:00 +27°C° 0 mm 3 m/S 612 mmHg 13%
    14:00 +28°C° 0 mm 3 m/S 611 mmHg 12%
    15:00 +27°C° 0 mm 3 m/S 611 mmHg 12%
    16:00 +27°C° 0 mm 4 m/S 611 mmHg 12%
    17:00 +27°C° 0 mm 4 m/S 610 mmHg 12%
    18:00 +26°C° 0 mm 3 m/S 610 mmHg 15%
    19:00 +24°C° 0 mm 3 m/S 610 mmHg 18%
    20:00 +23°C° 0 mm 2 m/S 610 mmHg 21%
    21:00 +21°C° 0 mm 2 m/S 610 mmHg 22%
    22:00 +20°C° 0 mm 2 m/S 610 mmHg 24%
    23:00 +20°C° 0 mm 2 m/S 609 mmHg 25%
    Mehr zeigen